When you browse on this site, cookies collect data to enhance your experience and personalize the content and advertising you see.
Visit our Privacy Policy to learn more. By continuing to use the site, you agree to this use of cookies and data.
  • In Spain
  • List of Countries
  • For 7 days
  • Water Temperature
  • Weather Map
  • Weather Widgets
  • user-avatar
    Login

    Hourly Weather Marsa Alam

    Today, 18 February, Tuesday

    Time Temperature Precipitation Wind Pressure Humidity
    00:00 +12°C° 0 mm 1 mps 714 mmHg 76%
    01:00 +12°C° 0 mm 1 mps 714 mmHg 72%
    02:00 +12°C° 0 mm 2 mps 714 mmHg 66%
    03:00 +12°C° 0 mm 2 mps 714 mmHg 66%
    04:00 +12°C° 0 mm 2 mps 714 mmHg 67%
    05:00 +10°C° 0 mm 2 mps 714 mmHg 67%
    06:00 +13°C° 0 mm 2 mps 715 mmHg 60%
    07:00 +14°C° 0 mm 2 mps 715 mmHg 53%
    08:00 +16°C° 0 mm 2 mps 716 mmHg 46%
    09:00 +18°C° 0 mm 3 mps 716 mmHg 40%
    10:00 +19°C° 0 mm 4 mps 716 mmHg 34%
    11:00 +21°C° 0 mm 5 mps 717 mmHg 29%
    12:00 +22°C° 0 mm 5 mps 716 mmHg 26%
    13:00 +23°C° 0 mm 6 mps 716 mmHg 24%
    14:00 +24°C° 0 mm 6 mps 715 mmHg 21%
    15:00 +23°C° 0 mm 6 mps 715 mmHg 23%
    16:00 +22°C° 0 mm 5 mps 715 mmHg 25%
    17:00 +21°C° 0 mm 5 mps 715 mmHg 26%
    18:00 +19°C° 0 mm 4 mps 715 mmHg 31%
    19:00 +17°C° 0 mm 3 mps 715 mmHg 36%
    20:00 +14°C° 0 mm 3 mps 715 mmHg 42%
    21:00 +14°C° 0 mm 3 mps 715 mmHg 44%
    22:00 +13°C° 0 mm 3 mps 716 mmHg 47%
    23:00 +13°C° 0 mm 4 mps 716 mmHg 49%

    Tomorrow, 19 February, Wednesday

    Time Temperature Precipitation Wind Pressure Humidity
    00:00 +12°C° 0 mm 4 mps 715 mmHg 51%
    01:00 +12°C° 0 mm 4 mps 715 mmHg 54%
    02:00 +11°C° 0 mm 4 mps 715 mmHg 56%
    03:00 +11°C° 0 mm 3 mps 715 mmHg 59%
    04:00 +10°C° 0 mm 3 mps 715 mmHg 61%
    05:00 +10°C° 0 mm 3 mps 715 mmHg 63%
    06:00 +11°C° 0 mm 4 mps 715 mmHg 57%
    07:00 +13°C° 0 mm 4 mps 716 mmHg 51%
    08:00 +14°C° 0 mm 5 mps 716 mmHg 45%
    09:00 +15°C° 0 mm 6 mps 717 mmHg 40%
    10:00 +17°C° 0 mm 8 mps 717 mmHg 35%
    11:00 +18°C° 0 mm 9 mps 717 mmHg 30%
    12:00 +18°C° 0 mm 10 mps 717 mmHg 28%
    13:00 +19°C° 0 mm 10 mps 716 mmHg 26%
    14:00 +19°C° 0 mm 11 mps 716 mmHg 25%
    15:00 +18°C° 0 mm 10 mps 716 mmHg 25%
    16:00 +18°C° 0 mm 9 mps 716 mmHg 26%
    17:00 +17°C° 0 mm 8 mps 716 mmHg 27%
    18:00 +16°C° 0 mm 7 mps 716 mmHg 31%
    19:00 +15°C° 0 mm 5 mps 716 mmHg 35%
    20:00 +13°C° 0 mm 4 mps 716 mmHg 39%
    21:00 +13°C° 0 mm 4 mps 717 mmHg 42%
    22:00 +12°C° 0 mm 4 mps 717 mmHg 45%
    23:00 +12°C° 0 mm 3 mps 717 mmHg 48%

    Day after tomorrow, 20 February, Thursday

    Time Temperature Precipitation Wind Pressure Humidity
    00:00 +11°C° 0 mm 3 mps 717 mmHg 50%
    01:00 +10°C° 0 mm 3 mps 717 mmHg 52%
    02:00 +10°C° 0 mm 2 mps 716 mmHg 55%
    03:00 +9°C° 0 mm 2 mps 716 mmHg 57%
    04:00 +9°C° 0 mm 2 mps 716 mmHg 59%
    05:00 +8°C° 0 mm 2 mps 716 mmHg 61%
    06:00 +10°C° 0 mm 2 mps 717 mmHg 55%
    07:00 +13°C° 0 mm 2 mps 718 mmHg 50%
    08:00 +14°C° 0 mm 2 mps 718 mmHg 45%
    09:00 +16°C° 0 mm 2 mps 719 mmHg 39%
    10:00 +17°C° 0 mm 2 mps 719 mmHg 34%
    11:00 +19°C° 0 mm 3 mps 719 mmHg 28%
    12:00 +20°C° 0 mm 3 mps 718 mmHg 28%
    13:00 +20°C° 0 mm 4 mps 718 mmHg 27%
    14:00 +21°C° 0 mm 5 mps 717 mmHg 26%
    15:00 +20°C° 0 mm 5 mps 717 mmHg 33%
    16:00 +19°C° 0 mm 5 mps 717 mmHg 40%
    17:00 +17°C° 0 mm 4 mps 716 mmHg 47%
    18:00 +16°C° 0 mm 3 mps 716 mmHg 56%
    19:00 +14°C° 0 mm 2 mps 716 mmHg 66%
    20:00 +12°C° 0 mm 1 mps 716 mmHg 75%
    21:00 +12°C° 0 mm 1 mps 716 mmHg 77%
    22:00 +11°C° 0 mm 1 mps 716 mmHg 79%
    23:00 +11°C° 0 mm 1 mps 716 mmHg 82%

    21 February, Friday

    Time Temperature Precipitation Wind Pressure Humidity
    00:00 +10°C° 0 mm 1 mps 716 mmHg 80%
    01:00 +10°C° 0 mm 1 mps 716 mmHg 79%
    02:00 +10°C° 0 mm 1 mps 715 mmHg 77%
    03:00 +9°C° 0 mm 1 mps 715 mmHg 76%
    04:00 +9°C° 0 mm 1 mps 715 mmHg 75%
    05:00 +9°C° 0 mm 1 mps 715 mmHg 74%
    06:00 +11°C° 0 mm 1 mps 716 mmHg 63%
    07:00 +14°C° 0 mm 1 mps 716 mmHg 52%
    08:00 +16°C° 0 mm 1 mps 717 mmHg 41%
    15:00 +23°C° 0 mm 4 mps 715 mmHg 23%
    16:00 +22°C° 0 mm 4 mps 715 mmHg 26%
    17:00 +21°C° 0 mm 4 mps 715 mmHg 28%
    18:00 +19°C° 0 mm 3 mps 715 mmHg 36%
    19:00 +16°C° 0 mm 2 mps 715 mmHg 44%
    20:00 +14°C° 0 mm 1 mps 715 mmHg 52%
    21:00 +14°C° 0 mm 2 mps 715 mmHg 46%
    22:00 +14°C° 0 mm 2 mps 716 mmHg 40%
    23:00 +13°C° 0 mm 3 mps 716 mmHg 34%

    22 February, Saturday

    Time Temperature Precipitation Wind Pressure Humidity
    00:00 +13°C° 0 mm 3 mps 716 mmHg 35%
    01:00 +12°C° 0 mm 3 mps 715 mmHg 36%
    02:00 +12°C° 0 mm 3 mps 715 mmHg 37%
    03:00 +11°C° 0 mm 3 mps 715 mmHg 40%
    04:00 +10°C° 0 mm 3 mps 715 mmHg 44%
    05:00 +10°C° 0 mm 3 mps 716 mmHg 47%
    06:00 +11°C° 0 mm 3 mps 716 mmHg 46%
    07:00 +13°C° 0 mm 3 mps 717 mmHg 44%
    08:00 +14°C° 0 mm 3 mps 717 mmHg 42%
    09:00 +17°C° 0 mm 3 mps 717 mmHg 36%
    10:00 +19°C° 0 mm 4 mps 718 mmHg 29%
    11:00 +21°C° 0 mm 4 mps 718 mmHg 23%
    12:00 +21°C° 0 mm 5 mps 717 mmHg 21%
    13:00 +22°C° 0 mm 5 mps 717 mmHg 18%
    14:00 +23°C° 0 mm 5 mps 716 mmHg 16%
    15:00 +21°C° 0 mm 5 mps 716 mmHg 22%
    16:00 +20°C° 0 mm 5 mps 716 mmHg 28%
    17:00 +19°C° 0 mm 4 mps 716 mmHg 34%
    18:00 +16°C° 0 mm 3 mps 716 mmHg 44%
    19:00 +14°C° 0 mm 2 mps 716 mmHg 55%
    20:00 +12°C° 0 mm 1 mps 716 mmHg 65%
    21:00 +12°C° 0 mm 1 mps 717 mmHg 68%
    22:00 +11°C° 0 mm 1 mps 717 mmHg 72%
    23:00 +10°C° 0 mm 1 mps 717 mmHg 75%

    23 February, Sunday

    Time Temperature Precipitation Wind Pressure Humidity
    00:00 +10°C° 0 mm 1 mps 716 mmHg 75%
    01:00 +10°C° 0 mm 1 mps 716 mmHg 75%
    02:00 +10°C° 0 mm 1 mps 716 mmHg 75%
    03:00 +9°C° 0 mm 2 mps 716 mmHg 73%
    04:00 +9°C° 0 mm 2 mps 716 mmHg 70%
    05:00 +8°C° 0 mm 2 mps 716 mmHg 68%
    06:00 +10°C° 0 mm 3 mps 716 mmHg 60%
    07:00 +11°C° 0 mm 3 mps 717 mmHg 51%
    08:00 +13°C° 0 mm 4 mps 717 mmHg 43%
    09:00 +14°C° 0 mm 4 mps 717 mmHg 36%
    10:00 +17°C° 0 mm 4 mps 717 mmHg 29%
    11:00 +19°C° 0 mm 3 mps 717 mmHg 23%
    12:00 +19°C° 0 mm 4 mps 717 mmHg 21%
    13:00 +20°C° 0 mm 4 mps 716 mmHg 20%
    14:00 +21°C° 0 mm 5 mps 716 mmHg 19%
    15:00 +20°C° 0 mm 5 mps 716 mmHg 21%
    16:00 +19°C° 0 mm 5 mps 716 mmHg 24%
    17:00 +17°C° 0 mm 5 mps 715 mmHg 27%
    18:00 +16°C° 0 mm 5 mps 716 mmHg 33%
    19:00 +14°C° 0 mm 4 mps 716 mmHg 39%
    20:00 +12°C° 0 mm 4 mps 716 mmHg 45%
    21:00 +11°C° 0 mm 4 mps 716 mmHg 45%
    22:00 +11°C° 0 mm 4 mps 716 mmHg 46%
    23:00 +10°C° 0 mm 4 mps 717 mmHg 46%
    Show more